Flag for Poland Weather past 2 weeks in Bytom, Poland

Now
54 °F

Fog.


Feels Like: 54 °F
Forecast: 61 / 77 °F
Wind: 2 mph from North

Location: Katowice Airport

Current Time: Jul 7, 2015 at 5:06:13 AM

Latest Report: Jul 7, 2015 at 4:30 AM


Visibility: N/A

Pressure: 30.09 "Hg

Humidity: 94%

Dew point: 52 °F

Location of BytomLocation

Historic Weather in Bytom — Graph

°F

Bytom temperature yesterday

Maximum temperature yesterday: 90 °F (at 1:30 PM)
Minimum temperature yesterday: 63 °F (at 3:00 AM)
Average temperature yesterday: 76 °F

Past Weeks' High & Low Weather Summary

 TemperatureHumidityPressure
High91 °F (Jul 5, 2:30 PM)100% (Jun 23, 6:30 AM)30.39 "Hg (Jun 23, 6:30 AM)
Low43 °F (Jun 25, 3:30 AM)27% (Jul 5, 5:00 PM)29.74 "Hg (Jun 23, 3:30 AM)
Average64 °F69%30.11 "Hg
* Reported Jun 22 3:00 AM — Jul 7 3:30 AM, Bytom, Weather by CustomWeather, © 2015

Note: Actual official high and low records may vary slightly from our data, if they occured in-between our weather recording intervals... More about our weather records

Advertising

Bytom weather history for previous 24 hours

 ConditionsComfort  
Time TempWeatherWind HumidityBarometerVisibility
3:30 AM
Tue, Jul 7
57 °FClear.3 mph88%30.09 "Hg10 mi
3:00 AM57 °FClear.2 mph88%30.09 "Hg10 mi
2:30 AM59 °FClear.2 mph88%30.09 "Hg10 mi
2:00 AM59 °FClear.1 mph88%30.09 "Hg10 mi
1:30 AM59 °FClear.1 mph88%30.12 "Hg10 mi
1:00 AM59 °FClear.No wind94%30.12 "Hg10 mi
12:30 AM59 °FClear.2 mph88%30.12 "Hg10 mi
12:00 AM63 °FClear.1 mph83%30.12 "Hg10 mi
11:00 PM
Mon, Jul 6
66 °FClear.1 mph78%30.12 "Hg10 mi
10:30 PM66 °FClear.2 mph78%30.12 "Hg10 mi
10:00 PM68 °FClear.2 mph73%30.09 "Hg10 mi
9:30 PM72 °FSunny.3 mph65%30.09 "Hg10 mi
9:00 PM72 °FSunny.6 mph65%30.09 "Hg10 mi
8:30 PM75 °FSunny.8 mph61%30.07 "Hg10 mi
8:00 PM77 °FPassing clouds.9 mph57%30.07 "HgN/A
7:30 PM77 °FPassing clouds.9 mph57%30.07 "HgN/A
7:00 PM79 °FSunny.12 mph58%30.07 "Hg10 mi
6:30 PM81 °FSunny.14 mph51%30.07 "Hg10 mi
6:00 PM81 °FPassing clouds.16 mph54%30.07 "HgN/A
5:30 PM82 °FPassing clouds.17 mph51%30.07 "HgN/A
5:00 PM84 °FPassing clouds.15 mph48%30.07 "HgN/A
4:30 PM84 °FPassing clouds.15 mph48%30.04 "HgN/A
4:00 PM84 °FPassing clouds.15 mph48%30.04 "HgN/A
3:30 PM86 °FPassing clouds.14 mph43%30.04 "HgN/A
3:00 PM88 °FPassing clouds.12 mph40%30.04 "HgN/A
2:30 PM88 °FPassing clouds.12 mph40%30.04 "HgN/A
2:00 PM88 °FPassing clouds.13 mph40%30.04 "HgN/A
1:30 PM90 °FPassing clouds.12 mph38%30.01 "HgN/A
1:00 PM88 °FPassing clouds.10 mph40%30.01 "HgN/A
12:30 PM88 °FPassing clouds.7 mph40%30.01 "HgN/A
12:00 PM86 °FSunny.10 mph46%30.01 "Hg10 mi
11:30 AM84 °FSunny.8 mph48%30.01 "Hg10 mi
11:00 AM86 °FPassing clouds.8 mph46%30.01 "HgN/A
10:30 AM82 °FSunny.7 mph51%30.01 "Hg10 mi
10:00 AM82 °FSunny.9 mph51%30.01 "Hg10 mi
9:30 AM81 °FSunny.12 mph51%30.01 "Hg10 mi
9:00 AM79 °FPassing clouds.8 mph54%30.01 "HgN/A
8:30 AM77 °FSunny.7 mph54%29.98 "Hg10 mi
8:00 AM77 °FPassing clouds.10 mph54%29.98 "HgN/A
7:30 AM75 °FPassing clouds.8 mph54%30.01 "HgN/A
7:00 AM72 °FSunny.3 mph69%30.01 "Hg10 mi
6:30 AM70 °FPassing clouds.5 mph73%29.98 "HgN/A
6:00 AM68 °FSunny.5 mph78%30.01 "Hg10 mi
5:30 AM66 °FClear.3 mph78%30.01 "Hg10 mi
5:00 AM66 °FClear.6 mph78%29.98 "Hg10 mi
Weather by CustomWeather, © 2015

See weather overviewHow to use our weather pages